Tracking 34408 objects as of 13-Jun-2026
HD Live streaming from Space Station
objects crossing your sky now

ARIANE 5 DEB (SYLDA)

Track ARIANE 5 DEB (SYLDA) now!


NORAD ID: 27833
Int'l Code: 2003-028D
Perigee: 559.1 km
Apogee: 35,658.7 km
Inclination: 6.5 °
Period: 635.3 minutes
Semi major axis: 24479 km
RCS: 16.2807 m2 (large)
Launch date: June 11, 2003
Source: France (FR)
Launch site: FRENCH GUIANA (FRGUI)

Note: This is SATELLITE DEBRIS
Your satellite tracking list
Your tracking list is empty




NASA's NSSDC Master Catalog

Two Line Element Set (TLE):
1 27833U 03028D   26163.91650130  .00000085  00000-0  17586-2 0  9991
2 27833   6.4885 112.6961 7169083 316.2604   5.4770  2.26667256190014
Source of the keplerian elements: AFSPC